Regional Weather Roundup
Issued by NWS

Home | Current Version | Previous Version | Text Only | Print | Product List | Glossary On
Versions: 1 2 3 4 5 6 7 8 9 10 11 12 13 14 15 16 17 18 19 20 21 22 23 24 25 26 27 28 29 30 31 32 33 34 35 36 37 38 39 40 41 42 43 44 45 46 47 48 49 50
000
ASUS43 KIND 201009
RWRIN

WEATHER ROUNDUP FOR INDIANA
NATIONAL WEATHER SERVICE INDIANAPOLIS IN
600 AM EDT SUN MAY 20 2018

NOTE: "FAIR" INDICATES FEW OR NO CLOUDS BELOW 12,000 FEET WITH NO
SIGNIFICANT WEATHER AND/OR OBSTRUCTIONS TO VISIBILITY.

* - STATION DOES NOT REPORT WEATHER SUCH AS PRECIPITATION OR FOG.

+ - STATION NOT QUALITY CONTROLLED BY THE NATIONAL WEATHER SERVICE.
    USE DATA WITH CAUTION...ESPECIALLY DEWPOINT AND RELATIVE
    HUMIDITY OBSERVATIONS.

INZ001>003-010>013-019-020-201100-
NORTHWEST INDIANA

CITY           SKY/WX    TMP DP  RH WIND       PRES   REMARKS
GARY /AIRPORT/ CLOUDY    46  46 100 N15       30.11R FOG
KNOX *+        CLOUDY    54  54 100 N6        30.04S
LA PORTE +     CLOUDY    51  51  99 N6        30.06S FOG
MICHIGAN CITY+ FOG       50  50 100 N5        30.07R VSB 1
MONTICELLO +   FAIR      59  58  95 E6        30.02S FOG
RENSSELAER +   CLOUDY    59  54  82 N10       30.05R HAZE
VALPARAISO     FOG       53  52  96 VRB6      30.06R VSB 3/4

$$

LMZ046-743>745-201100-
SOUTHERN LAKE MICHIGAN

STATION/POSITION TIME  TEMP    WIND        PRES    WAVE
                       AIR SEA DIR/SP/G            HT
                 (UTC) (F)     (DEG/KT/KT) (MB)    (FT)
BURNS HARBOR     0940   47     340/ 10/ 13 1019.0R
5NW MICH CITY    1000   47 52   10/  8/ 12   N/A     2

$$

INZ004-005-014>016-021>024-201100-
NORTH CENTRAL INDIANA

CITY           SKY/WX    TMP DP  RH WIND       PRES   REMARKS
GOSHEN         CLOUDY    56  55  97 NE7       30.06R FOG
LOGANSPORT +   FAIR      55  55 100 E3        30.04S FOG
PERU/GRISSOM   FAIR      57  57 100 SE3       30.02R
ROCHESTER +    MOCLDY    59  55  88 N5        30.05S
SOUTH BEND     CLOUDY    52  51  97 NE8       30.07R
WARSAW +       CLOUDY    55  55 100 NE7       30.05R

$$

INZ006>009-017-018-025>027-201100-
NORTHEAST INDIANA

CITY           SKY/WX    TMP DP  RH WIND       PRES   REMARKS
ANGOLA *+        N/A     57  54  88 N5        30.06R
AUBURN +       CLOUDY    57  55  94 N3        30.07R
FORT WAYNE     CLOUDY    59  57  93 NE8       30.04F
HUNTINGTON +   CLOUDY    56  55  96 NE3       30.04R

$$

INZ028-029-035-036-043>045-051>053-201100-
WEST CENTRAL INDIANA

CITY           SKY/WX    TMP DP  RH WIND       PRES   REMARKS
CRAWFORDSVL +  FAIR      61  61 100 CALM      30.03R FOG
GREENCASTLE +  FOG       61  61 100 E3        30.02S VSB 1/2
LAFAYETTE      FAIR      61  59  93 E7        30.02R
TERRE HAUTE    FOG       62  62 100 SW3       30.02R VSB 3/4

$$

INZ030>032-037>040-046>048-054>057-064-065-201100-
CENTRAL INDIANA

CITY           SKY/WX    TMP DP  RH WIND       PRES   REMARKS
ANDERSON       FAIR      60  60  97 NE3       30.04S FOG
FRANKFORT +    FAIR      63  60  89 E6        30.04R FOG
GREENWOOD *+   MOCLDY    64  63  96 E5        30.03R
INDIANAPOLIS   MOCLDY    65  62  90 NE9       30.03R FOG
-EAGLE CREEK   MOCLDY    64  59  83 E6        30.02R
KOKOMO +       FAIR      58  57  97 CALM      30.04S FOG
MARION +       FAIR      57  56  95 CALM      30.05R FOG
MT COMFORT *+  FAIR      61  61 100 NE5       30.03F
SHELBYVILLE    FOG       65  62  90 NE5       30.02R VSB 1
ZIONSVILLE +   FAIR      61  60  97 E5        30.04R FOG

$$

INZ033-034-041-042-049-050-058-059-201100-
EAST CENTRAL INDIANA

CITY           SKY/WX    TMP DP  RH WIND       PRES   REMARKS
MUNCIE         FAIR      59  56  89 NE3       30.04S FOG
RICHMOND +     MOCLDY    61  61 100 CALM      30.05S FOG

$$

INZ060-061-067>069-081>083-085>088-201100-
SOUTHWEST INDIANA

CITY           SKY/WX    TMP DP  RH WIND       PRES   REMARKS
EVANSVILLE     FAIR      64  63  96 CALM      30.05R
HUNTINGBURG +  FAIR      64  62  93 S5        30.04R
WASHINGTON +   FAIR      62  60  94 CALM      30.03R

$$

INZ062-063-066-070>080-084-089>092-201100-
SOUTH CENTRAL AND SOUTHEAST INDIANA

CITY           SKY/WX    TMP DP  RH WIND       PRES   REMARKS
BATESVILLE +   PTCLDY    64  64 100 CALM      30.03S FOG
BEDFORD +      FAIR      63  61  94 SW3       30.02R FOG
BLOOMINGTON    FAIR      62  61  96 CALM      30.03R
FRENCH LICK *+ FAIR      63 N/A N/A CALM      30.05R
MADISON *+     FAIR      64  63  94 CALM      30.04F
NORTH VERNON + FAIR      63  63 100 CALM      30.02S FOG
SEYMOUR +      FAIR      64  63  94 SW5       30.03R FOG

$$




USA.gov is the U.S. government's official web portal to all federal, state and local government web resources and services.